Tracking 19909 objects as of 21-Oct-2019
HD Live streaming from Space Station
objects crossing your sky now

DMSP 5D-2 F11 DEB

Track DMSP 5D-2 F11 DEB now!
10-day predictions


NORAD ID: 29074
Int'l Code: 1991-082BV
Perigee: 789.4 km
Apogee: 806.6 km
Inclination: 98.7 °
Period: 100.7 minutes
Semi major axis: 7169 km
RCS: 0.0073 m2 (small)
Launch date: November 28, 1991
Source: United States (US)
Launch site: AIR FORCE WESTERN TEST RANGE (AFWTR)

Note: This is SATELLITE DEBRIS
aabbcc
Your satellite tracking list
Your tracking list is empty




NASA's NSSDC Master Catalog

Two Line Element Set (TLE):
1 29074U 91082BV  19292.32962607  .00000786  00000-0  32046-3 0  9999
2 29074  98.7462 327.1726 0012004 189.5844 170.5111 14.30259623784015
Source of the keplerian elements: AFSPC